WIF6YL ENTC-ENKR

Flight info

Callsign WIF6YL
Flight time 0h 49m
Altitude 25000
Route ERPUG DCT TINOS DCT VADLA
Aircraft DH8D/M-SDFGRY/SB1

Departure

Time 2026-04-27 18:29
Airport Tromsø Airport (ENTC)

Arrival

Time 2026-04-27 19:18
Airport Kirkenes Airport, Høybuktmoen (ENKR)
Time Latitude Longitude Altitude Speed Heading
2026-04-27 18:09 69.68122 18.90976 -14 ft 0 kts 282°
2026-04-27 18:24 69.68124 18.90970 -14 ft 1 kts 310°
2026-04-27 18:24 69.68131 18.90991 -14 ft 3 kts 105°
2026-04-27 18:24 69.68121 18.91080 -14 ft 6 kts 108°
2026-04-27 18:25 69.68107 18.91215 -13 ft 8 kts 109°
2026-04-27 18:25 69.68078 18.91353 -13 ft 6 kts 189°
2026-04-27 18:25 69.68031 18.91295 -13 ft 8 kts 188°
2026-04-27 18:25 69.67969 18.91258 -12 ft 10 kts 193°
2026-04-27 18:26 69.67896 18.91210 -12 ft 11 kts 193°
2026-04-27 18:26 69.67814 18.91155 -12 ft 12 kts 193°
2026-04-27 18:26 69.67723 18.91093 -12 ft 13 kts 193°
2026-04-27 18:26 69.67638 18.91120 -12 ft 11 kts 117°
2026-04-27 18:27 69.67616 18.91329 -11 ft 10 kts 121°
2026-04-27 18:27 69.67554 18.91362 -10 ft 11 kts 190°
2026-04-27 18:27 69.67441 18.91296 -11 ft 21 kts 193°
2026-04-27 18:27 69.67300 18.91146 -13 ft 14 kts 215°
2026-04-27 18:28 69.67261 18.91181 -13 ft 6 kts 39°
2026-04-27 18:28 69.67276 18.91198 -13 ft 0 kts 14°
2026-04-27 18:28 69.67277 18.91199 -13 ft 3 kts 14°
2026-04-27 18:28 69.67606 18.91404 -10 ft 96 kts 13°
2026-04-27 18:29 69.68463 18.91972 169 ft 142 kts 11°
2026-04-27 18:29 69.69481 18.92718 780 ft 159 kts 14°
2026-04-27 18:29 69.70567 18.93493 1531 ft 169 kts 13°
2026-04-27 18:29 69.71722 18.94294 2371 ft 175 kts 13°
2026-04-27 18:30 69.72900 18.95097 3204 ft 180 kts 13°
2026-04-27 18:30 69.74073 18.96337 3852 ft 184 kts 38°
2026-04-27 18:30 69.74738 18.99497 4510 ft 188 kts 70°
2026-04-27 18:30 69.75176 19.02992 5201 ft 190 kts 67°
2026-04-27 18:31 69.75682 19.06474 5886 ft 192 kts 64°
2026-04-27 18:31 69.76238 19.09992 6574 ft 193 kts 61°
2026-04-27 18:31 69.76824 19.13465 7254 ft 195 kts 59°
2026-04-27 18:31 69.77442 19.16961 7815 ft 205 kts 58°
2026-04-27 18:32 69.78149 19.20795 8136 ft 223 kts 58°
2026-04-27 18:32 69.78904 19.24801 8699 ft 231 kts 57°
2026-04-27 18:32 69.79679 19.28879 9352 ft 234 kts 58°
2026-04-27 18:32 69.80173 19.33341 9963 ft 243 kts 82°
2026-04-27 18:33 69.80146 19.38280 10597 ft 248 kts 89°
2026-04-27 18:33 69.80077 19.43271 11237 ft 251 kts 88°
2026-04-27 18:33 69.80009 19.48318 11871 ft 254 kts 88°
2026-04-27 18:33 69.79941 19.53412 12548 ft 256 kts 88°
2026-04-27 18:34 69.79875 19.58549 13227 ft 258 kts 88°
2026-04-27 18:34 69.79810 19.63799 13921 ft 261 kts 88°
2026-04-27 18:34 69.79745 19.69042 14600 ft 263 kts 89°
2026-04-27 18:34 69.79678 19.74302 15275 ft 265 kts 89°
2026-04-27 18:35 69.79612 19.79643 15919 ft 268 kts 89°
2026-04-27 18:35 69.79543 19.85060 16552 ft 270 kts 89°
2026-04-27 18:35 69.79475 19.90490 17164 ft 272 kts 89°
2026-04-27 18:35 69.79404 19.95927 17736 ft 274 kts 89°
2026-04-27 18:36 69.79415 20.01399 18272 ft 275 kts 81°
2026-04-27 18:36 69.79694 20.06907 18809 ft 275 kts 77°
2026-04-27 18:36 69.80006 20.12360 19317 ft 277 kts 77°
2026-04-27 18:36 69.80315 20.17817 19797 ft 280 kts 78°
2026-04-27 18:37 69.80631 20.23437 20328 ft 282 kts 78°
2026-04-27 18:37 69.80942 20.29020 20731 ft 284 kts 78°
2026-04-27 18:37 69.81252 20.34659 21176 ft 286 kts 78°
2026-04-27 18:37 69.81561 20.40334 21608 ft 287 kts 78°
2026-04-27 18:38 69.81869 20.46016 22012 ft 288 kts 78°
2026-04-27 18:38 69.82179 20.51801 22391 ft 290 kts 78°
2026-04-27 18:38 69.82486 20.57577 22735 ft 292 kts 78°
2026-04-27 18:38 69.82797 20.63461 23054 ft 293 kts 78°
2026-04-27 18:39 69.83106 20.69357 23359 ft 295 kts 78°
2026-04-27 18:39 69.83413 20.75244 23661 ft 296 kts 78°
2026-04-27 18:39 69.83717 20.81138 23970 ft 297 kts 78°
2026-04-27 18:39 69.84023 20.87111 24270 ft 298 kts 78°
2026-04-27 18:40 69.84325 20.93062 24560 ft 299 kts 78°
2026-04-27 18:40 69.84631 20.99072 24805 ft 300 kts 78°
2026-04-27 18:40 69.84930 21.05032 25033 ft 300 kts 78°
2026-04-27 18:40 69.85230 21.11071 25244 ft 301 kts 78°
2026-04-27 18:41 69.85532 21.17162 25331 ft 307 kts 78°
2026-04-27 18:41 69.85835 21.23305 25353 ft 315 kts 78°
2026-04-27 18:41 69.86146 21.29648 25341 ft 321 kts 78°
2026-04-27 18:41 69.86462 21.36166 25321 ft 327 kts 79°
2026-04-27 18:42 69.86773 21.42671 25309 ft 330 kts 79°
2026-04-27 18:42 69.86987 21.47160 25304 ft 332 kts 79°
2026-04-27 18:42 69.87159 21.56059 25297 ft 337 kts 87°
2026-04-27 18:42 69.87125 21.62902 25292 ft 338 kts 88°
2026-04-27 18:43 69.87086 21.69746 25294 ft 338 kts 89°
2026-04-27 18:43 69.87044 21.76569 25299 ft 338 kts 89°
2026-04-27 18:43 69.87020 21.83429 25307 ft 338 kts 87°
2026-04-27 18:43 69.87099 21.90196 25317 ft 338 kts 85°
2026-04-27 18:44 69.87206 21.97057 25325 ft 338 kts 85°
2026-04-27 18:44 69.87315 22.03841 25327 ft 339 kts 85°
2026-04-27 18:44 69.87423 22.10665 25314 ft 339 kts 85°
2026-04-27 18:44 69.87530 22.17553 25298 ft 339 kts 85°
2026-04-27 18:45 69.87637 22.24404 25283 ft 340 kts 85°
2026-04-27 18:45 69.87740 22.31214 25287 ft 341 kts 85°
2026-04-27 18:45 69.87844 22.38131 25253 ft 343 kts 85°
2026-04-27 18:45 69.87944 22.45004 25198 ft 345 kts 85°
2026-04-27 18:46 69.88045 22.52032 25105 ft 348 kts 85°
2026-04-27 18:46 69.88142 22.59013 25078 ft 345 kts 85°
2026-04-27 18:46 69.88236 22.65955 25113 ft 341 kts 85°
2026-04-27 18:46 69.88327 22.72799 25162 ft 337 kts 85°
2026-04-27 18:47 69.88416 22.79609 25217 ft 335 kts 85°
2026-04-27 18:47 69.88500 22.86319 25240 ft 335 kts 85°
2026-04-27 18:47 69.88583 22.93076 25263 ft 335 kts 85°
2026-04-27 18:47 69.88663 22.99883 25280 ft 336 kts 85°
2026-04-27 18:48 69.88740 23.06624 25292 ft 337 kts 85°
2026-04-27 18:48 69.88814 23.13389 25303 ft 338 kts 85°
2026-04-27 18:48 69.88887 23.20221 25308 ft 338 kts 85°
2026-04-27 18:48 69.88957 23.27113 25315 ft 338 kts 85°
2026-04-27 18:49 69.89022 23.33885 25312 ft 339 kts 85°
2026-04-27 18:49 69.89083 23.40696 25307 ft 339 kts 85°
2026-04-27 18:49 69.89143 23.47544 25301 ft 339 kts 85°
2026-04-27 18:49 69.89201 23.54460 25296 ft 339 kts 85°
2026-04-27 18:50 69.89256 23.61237 25295 ft 339 kts 85°
2026-04-27 18:50 69.89307 23.68119 25293 ft 339 kts 86°
2026-04-27 18:50 69.89356 23.74946 25293 ft 339 kts 86°
2026-04-27 18:50 69.89398 23.81811 25287 ft 339 kts 86°
2026-04-27 18:51 69.89445 23.88685 25279 ft 340 kts 86°
2026-04-27 18:51 69.89490 23.95576 25269 ft 340 kts 86°
2026-04-27 18:51 69.89531 24.02406 25254 ft 340 kts 86°
2026-04-27 18:51 69.89570 24.09355 25239 ft 340 kts 86°
2026-04-27 18:52 69.89605 24.16155 25227 ft 340 kts 86°
2026-04-27 18:52 69.89638 24.23052 25214 ft 340 kts 86°
2026-04-27 18:52 69.89668 24.29886 25200 ft 340 kts 86°
2026-04-27 18:53 69.89720 24.43685 25166 ft 344 kts 86°
2026-04-27 18:53 69.89743 24.50680 25066 ft 349 kts 86°
2026-04-27 18:53 69.89763 24.57711 24967 ft 347 kts 86°
2026-04-27 18:53 69.89779 24.64707 25004 ft 342 kts 86°
2026-04-27 18:54 69.89792 24.71521 25068 ft 337 kts 87°
2026-04-27 18:54 69.89802 24.78309 25138 ft 335 kts 87°
2026-04-27 18:54 69.89810 24.85136 25183 ft 335 kts 87°
2026-04-27 18:54 69.89816 24.91910 25204 ft 337 kts 87°
2026-04-27 18:55 69.89820 24.98745 25215 ft 338 kts 88°
2026-04-27 18:55 69.89820 25.05604 25220 ft 340 kts 88°
2026-04-27 18:55 69.89819 25.12437 25206 ft 340 kts 88°
2026-04-27 18:55 69.89814 25.19305 25200 ft 340 kts 88°
2026-04-27 18:56 69.89806 25.26167 25200 ft 340 kts 88°
2026-04-27 18:56 69.89796 25.33114 25191 ft 340 kts 88°
2026-04-27 18:56 69.89784 25.39946 25179 ft 340 kts 88°
2026-04-27 18:56 69.89768 25.46813 25166 ft 340 kts 88°
2026-04-27 18:57 69.89750 25.53686 25157 ft 340 kts 88°
2026-04-27 18:57 69.89729 25.60463 25156 ft 340 kts 88°
2026-04-27 18:57 69.89706 25.67398 25154 ft 339 kts 89°
2026-04-27 18:57 69.89679 25.74286 25154 ft 339 kts 89°
2026-04-27 18:58 69.89650 25.81082 25151 ft 339 kts 89°
2026-04-27 18:58 69.89630 25.85646 25148 ft 339 kts 89°
2026-04-27 18:58 69.89586 25.94819 25144 ft 339 kts 89°
2026-04-27 18:58 69.89551 26.01665 25137 ft 340 kts 89°
2026-04-27 18:59 69.89512 26.08494 25119 ft 341 kts 89°
2026-04-27 18:59 69.89469 26.15347 25099 ft 342 kts 89°
2026-04-27 18:59 69.89424 26.22255 25072 ft 342 kts 89°
2026-04-27 18:59 69.89377 26.29178 25003 ft 336 kts 89°
2026-04-27 19:00 69.89329 26.35866 24749 ft 330 kts 89°
2026-04-27 19:00 69.89281 26.42477 24461 ft 328 kts 89°
2026-04-27 19:00 69.89230 26.49080 24106 ft 325 kts 89°
2026-04-27 19:00 69.89178 26.55616 23744 ft 322 kts 89°
2026-04-27 19:01 69.89123 26.62095 23383 ft 319 kts 89°
2026-04-27 19:01 69.89067 26.68463 23028 ft 315 kts 90°
2026-04-27 19:01 69.89011 26.74603 22661 ft 313 kts 90°
2026-04-27 19:01 69.88949 26.80951 22280 ft 311 kts 90°
2026-04-27 19:02 69.88886 26.87226 21907 ft 310 kts 90°
2026-04-27 19:02 69.88820 26.93433 21540 ft 308 kts 90°
2026-04-27 19:02 69.88752 26.99681 21189 ft 307 kts 90°
2026-04-27 19:02 69.88683 27.05868 20845 ft 305 kts 90°
2026-04-27 19:03 69.88613 27.11955 20508 ft 303 kts 90°
2026-04-27 19:03 69.88539 27.18146 20165 ft 302 kts 91°
2026-04-27 19:03 69.88464 27.24245 19827 ft 300 kts 91°
2026-04-27 19:03 69.88413 27.28297 19598 ft 300 kts 91°
2026-04-27 19:04 69.88309 27.36357 19142 ft 298 kts 91°
2026-04-27 19:04 69.88230 27.42275 18807 ft 297 kts 91°
2026-04-27 19:04 69.88148 27.48283 18463 ft 296 kts 91°
2026-04-27 19:04 69.88065 27.54203 18124 ft 295 kts 91°
2026-04-27 19:05 69.87979 27.60155 17786 ft 297 kts 91°
2026-04-27 19:05 69.87890 27.66183 17441 ft 299 kts 91°
2026-04-27 19:05 69.87798 27.72254 17084 ft 300 kts 91°
2026-04-27 19:05 69.87704 27.78387 16746 ft 301 kts 91°
2026-04-27 19:06 69.87609 27.84457 16414 ft 302 kts 91°
2026-04-27 19:06 69.87512 27.90569 16078 ft 303 kts 91°
2026-04-27 19:06 69.87412 27.96692 15634 ft 306 kts 91°
2026-04-27 19:06 69.87310 28.02783 15255 ft 303 kts 91°
2026-04-27 19:07 69.87206 28.08844 14897 ft 299 kts 91°
2026-04-27 19:07 69.87103 28.14778 14556 ft 296 kts 91°
2026-04-27 19:07 69.86999 28.20689 14217 ft 293 kts 91°
2026-04-27 19:07 69.86892 28.26607 13881 ft 290 kts 91°
2026-04-27 19:08 69.86785 28.32404 13555 ft 288 kts 91°
2026-04-27 19:08 69.86677 28.38191 13229 ft 286 kts 90°
2026-04-27 19:08 69.86567 28.43944 12907 ft 284 kts 90°
2026-04-27 19:08 69.86457 28.49588 12590 ft 282 kts 90°
2026-04-27 19:09 69.86346 28.55254 12278 ft 281 kts 90°
2026-04-27 19:09 69.86234 28.60869 11967 ft 280 kts 90°
2026-04-27 19:09 69.86119 28.66487 11655 ft 278 kts 91°
2026-04-27 19:09 69.86003 28.72090 11343 ft 277 kts 91°
2026-04-27 19:10 69.85885 28.77714 11026 ft 276 kts 90°
2026-04-27 19:10 69.85766 28.83225 10713 ft 275 kts 90°
2026-04-27 19:10 69.85646 28.88760 10401 ft 274 kts 90°
2026-04-27 19:10 69.85567 28.92416 10194 ft 274 kts 90°
2026-04-27 19:11 69.85403 28.99763 9779 ft 273 kts 89°
2026-04-27 19:11 69.85278 29.05277 9475 ft 272 kts 89°
2026-04-27 19:11 69.85154 29.10725 9174 ft 271 kts 89°
2026-04-27 19:11 69.85027 29.16176 8872 ft 271 kts 89°
2026-04-27 19:12 69.84900 29.21582 8572 ft 270 kts 88°
2026-04-27 19:12 69.84771 29.26987 8269 ft 269 kts 88°
2026-04-27 19:12 69.84640 29.32403 7964 ft 268 kts 88°
2026-04-27 19:12 69.84510 29.37711 7658 ft 262 kts 88°
2026-04-27 19:13 69.84380 29.42876 7359 ft 249 kts 87°
2026-04-27 19:13 69.84257 29.47726 7085 ft 237 kts 87°
2026-04-27 19:13 69.84136 29.52473 6830 ft 236 kts 86°
2026-04-27 19:13 69.84018 29.57237 6570 ft 235 kts 86°
2026-04-27 19:14 69.83897 29.61926 6311 ft 235 kts 87°
2026-04-27 19:14 69.83640 29.66684 6023 ft 241 kts 96°
2026-04-27 19:14 69.83128 29.71301 5788 ft 245 kts 106°
2026-04-27 19:14 69.82392 29.75778 5506 ft 244 kts 111°
2026-04-27 19:15 69.81619 29.80013 5219 ft 224 kts 111°
2026-04-27 19:15 69.80920 29.83728 5100 ft 195 kts 111°
2026-04-27 19:15 69.80281 29.87017 4799 ft 181 kts 111°
2026-04-27 19:15 69.79684 29.90081 4438 ft 171 kts 110°
2026-04-27 19:16 69.79109 29.93051 4012 ft 167 kts 111°
2026-04-27 19:16 69.78632 29.94819 3686 ft 173 kts 126°
2026-04-27 19:16 69.77432 29.98008 2977 ft 180 kts 136°
2026-04-27 19:16 69.76402 30.00140 2362 ft 192 kts 145°
2026-04-27 19:17 69.75200 30.01867 1823 ft 191 kts 171°
2026-04-27 19:17 69.74127 30.00729 1465 ft 158 kts 244°
2026-04-27 19:17 69.73702 29.98047 1081 ft 141 kts 264°
2026-04-27 19:17 69.73384 29.95465 785 ft 136 kts 260°
2026-04-27 19:18 69.73057 29.92936 500 ft 132 kts 258°
2026-04-27 19:18 69.72732 29.90482 310 ft 131 kts 258°
2026-04-27 19:18 69.72461 29.88446 291 ft 81 kts 254°
2026-04-27 19:18 69.72314 29.87276 293 ft 39 kts 250°
2026-04-27 19:19 69.72254 29.86912 294 ft 5 kts 257°
2026-04-27 19:19 69.72266 29.86908 294 ft 6 kts 40°
2026-04-27 19:19 69.72293 29.87155 293 ft 18 kts 68°
2026-04-27 19:19 69.72344 29.87539 292 ft 21 kts 69°
2026-04-27 19:20 69.72380 29.87861 291 ft 14 kts 90°
2026-04-27 19:20 69.72322 29.88037 291 ft 14 kts 160°
2026-04-27 19:20 69.72250 29.88106 292 ft 8 kts 174°
2026-04-27 19:20 69.72199 29.88135 292 ft 6 kts 160°
2026-04-27 19:21 69.72176 29.88160 293 ft 1 kts 160°
2026-04-27 19:21 69.72175 29.88161 293 ft 0 kts 160°